Ypsilanti, MI

7:25 PM EDT on March 25, 2017 (GMT -0400)
Willow Run

Weather History for KYIP - March, 2013

Change the Weather History Date:

Friday, March 22, 2013

  Actual Average Record
Temperature  
Mean Temperature 35 °F -  
Max Temperature 43 °F 47 °F 89 °F (2012)
Min Temperature 28 °F 28 °F 15 °F (1976)
Degree Days  
Heating Degree Days 30    
Moisture  
Dew Point 18 °F    
Average Humidity 55    
Maximum Humidity 69    
Minimum Humidity 38    
Precipitation  
Precipitation 0.00 in - - ()
Sea Level Pressure  
Sea Level Pressure 29.98 in    
Wind  
Wind Speed 12 mph (NW)    
Max Wind Speed 17 mph    
Max Gust Speed 22 mph    
Visibility 10 miles    
Events Snow    
Averages and records for this station are not official NWS values.
T = Trace of Precipitation, MM = Missing Value Source: NWS Daily Summary

Daily Weather History Graph

Daily Weather History Graph

Search for Another Location

Airport or City:

Trip Planner

Search our weather history database for the weather conditions in past years. The results will help you decide how hot, cold, wet, or windy it might be!

Date:

Astronomy

Mar. 22, 2013 Rise Set
Actual Time 7:33 AM EDT 7:48 PM EDT
Civil Twilight 7:05 AM EDT 8:16 PM EDT
Nautical Twilight 6:32 AM EDT 8:49 PM EDT
Astronomical Twilight 5:59 AM EDT 9:23 PM EDT
Moon 3:10 PM EDT (3/22) 4:38 AM EDT (3/22)
Length of Visible Light 13h 11m
Length of Day
12h 15m
Waxing Gibbous, 77% of the Moon is Illuminated
Mar 22
Waxing Gibbous
Mar 27
Full
Apr 3
Last Quarter
Apr 10
New
Apr 18
First Quarter

Hourly Weather History & Observations

Time (EDT) Temp. Windchill Dew Point Humidity Pressure Visibility Wind Dir Wind Speed Gust Speed Precip Events Conditions
12:53 AM 28.9 °F 18.6 °F 19.9 °F 69% 29.94 in 9.0 mi West 12.7 mph - 0.00 in Snow Light Snow
1:53 AM 28.9 °F 18.2 °F 19.0 °F 67% 29.95 in 10.0 mi West 13.8 mph - 0.00 in   Overcast
2:21 AM 28.4 °F 17.5 °F 17.6 °F 64% 29.93 in 10.0 mi WNW 13.8 mph - N/A   Overcast
2:53 AM 28.9 °F 17.7 °F 17.1 °F 61% 29.95 in 10.0 mi WNW 15.0 mph 20.7 mph N/A   Overcast
3:53 AM 28.9 °F 18.6 °F 16.0 °F 58% 29.96 in 10.0 mi NW 12.7 mph - N/A   Overcast
4:53 AM 28.0 °F 17.5 °F 15.1 °F 58% 29.96 in 10.0 mi NW 12.7 mph - N/A   Overcast
5:53 AM 28.9 °F 19.2 °F 15.1 °F 56% 29.96 in 10.0 mi WNW 11.5 mph - N/A   Overcast
6:53 AM 28.9 °F 16.9 °F 15.1 °F 56% 29.97 in 10.0 mi NW 17.3 mph 20.7 mph N/A   Overcast
7:33 AM 28.4 °F 18.5 °F 15.8 °F 59% 29.97 in 10.0 mi NW 11.5 mph - N/A   Overcast
7:53 AM 28.9 °F 19.8 °F 16.0 °F 58% 30.00 in 10.0 mi WNW 10.4 mph - N/A   Overcast
8:53 AM 30.0 °F 18.7 °F 16.0 °F 56% 29.99 in 10.0 mi NNW 16.1 mph 21.9 mph N/A   Overcast
9:43 AM 30.2 °F 19.8 °F 17.6 °F 60% 29.97 in 10.0 mi WNW 13.8 mph - N/A   Overcast
9:53 AM 30.9 °F 22.2 °F 17.1 °F 57% 29.99 in 10.0 mi WNW 10.4 mph - N/A   Overcast
10:10 AM 32.0 °F 24.8 °F 17.6 °F 55% 29.97 in 10.0 mi NW 8.1 mph - N/A   Overcast
10:53 AM 33.1 °F 25.5 °F 17.1 °F 52% 29.99 in 10.0 mi WNW 9.2 mph - N/A   Overcast
11:32 AM 33.8 °F 25.8 °F 17.6 °F 52% 29.97 in 10.0 mi WNW 10.4 mph - N/A   Overcast
11:53 AM 34.0 °F 25.0 °F 18.0 °F 52% 29.99 in 10.0 mi WNW 12.7 mph - N/A   Overcast
12:53 PM 36.0 °F 28.0 °F 18.0 °F 48% 29.99 in 10.0 mi NW 11.5 mph - N/A   Overcast
1:53 PM 37.9 °F 31.5 °F 18.0 °F 45% 29.99 in 10.0 mi WNW 9.2 mph - N/A   Overcast
2:53 PM 39.9 °F 32.9 °F 18.0 °F 41% 29.98 in 10.0 mi NW 11.5 mph - N/A   Partly Cloudy
3:53 PM 41.0 °F 36.4 °F 18.0 °F 40% 29.96 in 10.0 mi West 6.9 mph 16.1 mph N/A   Clear
4:53 PM 42.1 °F 36.6 °F 18.0 °F 38% 29.95 in 10.0 mi WNW 9.2 mph 20.7 mph N/A   Clear
5:53 PM 42.1 °F 36.6 °F 19.0 °F 40% 29.96 in 10.0 mi NW 9.2 mph 18.4 mph N/A   Clear
6:53 PM 41.0 °F 35.2 °F 19.0 °F 41% 29.96 in 10.0 mi NW 9.2 mph - N/A   Clear
7:53 PM 36.0 °F 31.1 °F 19.0 °F 50% 29.99 in 10.0 mi NW 5.8 mph - N/A   Clear
8:53 PM 34.0 °F 28.8 °F 19.9 °F 56% 30.01 in 10.0 mi NW 5.8 mph - N/A   Clear
9:53 PM 32.0 °F 24.8 °F 21.0 °F 64% 30.03 in 10.0 mi WNW 8.1 mph - N/A   Clear
10:53 PM 32.0 °F 24.8 °F 21.0 °F 64% 30.03 in 10.0 mi WNW 8.1 mph - N/A   Clear
11:53 PM 28.9 °F 22.8 °F 19.9 °F 69% 30.02 in 10.0 mi NW 5.8 mph - N/A   Clear